#datint,netname,site,siteID,timestamp,IntT,BattV,AirT2,AirT,AirT_Avg,AirT_Max,AirT_Min,RH_Avg,RH_Max,RH_Min,EA_Avg,Td_Avg,Td_Max,Td_Min,WindS_Smp,WindS_Avg,WindD_Avg,WindD_SD,WindS_Max,ETo,ETr,SoilT4,SoilT8,SoilVWC8,SolarW_Avg,wetstate_Avg,wetT_Avg,Precip_accum,Precip_WPG,Precip_TB
15min,AgWx,beryljct,423,12APR2019:00:00:00,34.8,12.91,33.1,32.6,32.8,33.2,32.6,94,94,94,0.591,31.3,31.8,31.0,4.253,4.1,324,5.3,5.0,-0.00010,-0.00012,.,47.2,25,0,0,35.3,13.37,0.00,0.00
15min,AgWx,beryljct,423,12APR2019:00:15:00,34.7,12.9,33.1,32.8,32.6,32.8,32.5,94,95,94,0.597,31.2,31.4,31.0,3.705,2.8,327,4.1,4.1,-0.00013,-0.00016,.,47.2,25,0,0,35.8,13.37,0.00,0.00
15min,AgWx,beryljct,423,12APR2019:00:30:00,34.9,12.89,34.0,33.4,33.0,33.5,32.6,95,95,94,0.613,31.6,32.2,31.2,3.201,3.7,323,6.1,4.8,-0.00011,-0.00013,.,47.2,25,0,0,36.0,13.37,0.00,0.00
15min,AgWx,beryljct,423,12APR2019:00:45:00,35.1,12.89,34.8,34.2,33.9,34.2,33.4,95,95,95,0.631,32.6,32.8,32.1,2.105,2.2,308,5.1,3.9,-0.00015,-0.00019,.,47.1,25,0,0,35.8,13.37,0.00,0.00
15min,AgWx,beryljct,423,12APR2019:01:00:00,35.4,12.87,34.3,33.8,34.0,34.3,33.8,94,95,94,0.619,32.6,32.9,32.3,3.157,2.6,322,4.6,3.9,-0.00014,-0.00017,.,47.1,25,0,0,35.7,13.37,0.00,0.00
15min,AgWx,beryljct,423,12APR2019:01:15:00,35.5,12.87,34.4,33.9,33.7,33.9,33.6,94,94,94,0.623,32.3,32.5,32.1,3.771,3.1,302,14,4.2,-0.00012,-0.00015,.,47.1,25,0,0,35.3,13.37,0.00,0.00
15min,AgWx,beryljct,423,12APR2019:01:30:00,35.5,12.86,34.6,34.0,34.0,34.2,33.9,94,94,93,0.619,32.5,32.6,32.2,3.946,3.3,282,10,4.2,-0.00012,-0.00014,.,47.0,25,0,0,35.5,13.37,0.00,0.00
15min,AgWx,beryljct,423,12APR2019:01:45:00,35.5,12.86,35.0,34.3,34.1,34.4,33.9,94,94,93,0.627,32.4,32.7,32.1,3.705,3.7,263,5.7,4.8,-0.00011,-0.00013,.,47.0,25,0,0,35.5,13.37,0.00,0.00
15min,AgWx,beryljct,423,12APR2019:02:00:00,35.7,12.85,34.9,34.5,34.5,34.7,34.3,93,93,93,0.627,32.7,32.8,32.5,1.337,3.0,294,12,4.8,-0.00013,-0.00015,.,46.9,25,0,0,35.6,13.37,0.00,0.00
15min,AgWx,beryljct,423,12APR2019:02:15:00,35.6,12.83,34.2,34.3,34.5,34.7,34.3,92,93,91,0.611,32.4,32.8,32.0,2.916,2.0,303,15,3.2,-0.00015,-0.00020,.,46.9,25,0,0,35.1,13.37,0.00,0.00
15min,AgWx,beryljct,423,12APR2019:02:30:00,35.2,12.81,34.8,34.1,33.7,34.2,33.3,92,93,91,0.611,31.6,32.2,30.9,1.578,2.1,326,7.4,3.3,-0.00014,-0.00018,.,46.8,25,0,0,35.5,13.38,0.00,0.00
15min,AgWx,beryljct,423,12APR2019:02:45:00,34.6,12.8,34.3,33.8,33.5,34.2,32.3,92,93,90,0.606,31.4,32.2,29.7,0.088,0.8,1.7,40,2.8,-0.00020,-0.00028,.,46.8,25,0,0,35.8,13.37,0.00,0.00
15min,AgWx,beryljct,423,12APR2019:03:00:00,34.1,12.81,33.4,33.2,33.0,33.9,32.2,92,93,91,0.592,31.0,31.9,30.1,2.105,1.8,325,7.1,3.9,-0.00015,-0.00020,.,46.7,25,0,0,35.6,13.37,0.00,0.00
15min,AgWx,beryljct,423,12APR2019:03:15:00,34.0,12.81,32.6,32.2,32.0,33.0,31.5,92,94,91,0.571,30.1,31.1,29.3,1.491,2.6,310,8.9,3.6,-0.00013,-0.00016,.,46.7,25,0,0,35.3,13.38,0.00,0.00
15min,AgWx,beryljct,423,12APR2019:03:30:00,34.2,12.8,34.8,33.7,32.9,33.7,32.2,93,94,93,0.609,31.2,31.9,30.3,2.609,2.9,332,15,3.6,-0.00013,-0.00015,.,46.6,25,0,0,36.0,13.37,0.00,0.00
15min,AgWx,beryljct,423,12APR2019:03:45:00,34.7,12.8,33.2,32.9,33.6,34.0,32.9,93,93,92,0.586,31.7,32.3,31.0,2.565,2.6,20,18,3.8,-0.00013,-0.00017,.,46.6,26,0,0,35.7,13.37,0.00,0.00
15min,AgWx,beryljct,423,12APR2019:04:00:00,35.0,12.79,33.5,32.9,33.0,33.3,32.7,93,94,93,0.593,31.2,31.7,30.8,1.666,2.6,27,13,4.2,-0.00013,-0.00016,.,46.5,25,0,0,35.5,13.37,0.00,0.00
15min,AgWx,beryljct,423,12APR2019:04:15:00,35.2,12.79,34.2,33.6,33.4,33.7,32.9,94,94,94,0.612,31.8,32.3,31.3,0,0.8,25,2.2,2.3,-0.00020,-0.00029,.,46.5,25,0,0,35.8,13.38,0.00,0.00
15min,AgWx,beryljct,423,12APR2019:04:30:00,35.4,12.79,34.4,34.0,33.9,34.0,33.6,94,94,93,0.618,32.3,32.5,32.1,1.184,0.5,56,16,2.7,-0.00022,-0.00032,.,46.4,25,0,0,35.3,13.37,0.00,0.00
15min,AgWx,beryljct,423,12APR2019:04:45:00,35.6,12.78,34.5,34.0,34.0,34.1,33.8,93,93,93,0.618,32.2,32.4,32.1,0.46,0.3,72,0.1,1.7,-0.00023,-0.00034,.,46.4,25,0,0,35.3,13.37,0.00,0.00
15min,AgWx,beryljct,423,12APR2019:05:00:00,35.7,12.78,34.8,34.5,34.2,34.5,34.0,93,93,93,0.627,32.4,32.6,32.2,0,0.1,79,4.1,0.7,-0.00024,-0.00038,.,46.4,25,0,0,35.6,13.37,0.00,0.00
15min,AgWx,beryljct,423,12APR2019:05:15:00,35.9,12.78,35.3,34.7,34.5,34.8,34.3,93,93,93,0.635,32.7,33.0,32.5,2.083,1.1,91,4.8,2.9,-0.00019,-0.00027,.,46.3,25,0,0,36.0,13.37,0.00,0.00
15min,AgWx,beryljct,423,12APR2019:05:30:00,36.1,12.78,35.5,35.0,34.9,35.1,34.7,93,93,93,0.638,33.1,33.2,32.9,2.674,2.3,98,5.9,3.7,-0.00015,-0.00019,.,46.3,25,0,0,36.3,13.37,0.00,0.00
15min,AgWx,beryljct,423,12APR2019:05:45:00,36.3,12.76,35.7,35.2,35.1,35.2,35.0,93,93,92,0.640,33.2,33.3,33.1,3.135,2.8,92,7.7,4.4,-0.00013,-0.00016,.,46.2,25,0,3,36.3,13.37,0.00,0.00
15min,AgWx,beryljct,423,12APR2019:06:00:00,36.5,12.77,35.5,35.1,35.1,35.2,35.0,93,93,92,0.640,33.2,33.3,33.1,2.872,2.2,86,12,3.6,-0.00015,-0.00019,.,46.2,25,0,100,36.3,13.38,0.00,0.00
15min,AgWx,beryljct,423,12APR2019:06:15:00,36.5,12.76,35.6,35.1,35.1,35.2,35.0,93,93,93,0.642,33.2,33.4,33.1,3.266,3.2,75,8.0,4.8,-0.00012,-0.00015,.,46.1,25,0,38,36.3,13.37,0.00,0.00
15min,AgWx,beryljct,423,12APR2019:06:30:00,36.6,12.77,35.5,35.0,35.1,35.2,35.0,93,93,93,0.642,33.3,33.4,33.2,3.047,3.1,70,8.9,4.3,0.00004,0.00007,.,46.1,25,0,31,36.3,13.38,0.00,0.00
15min,AgWx,beryljct,423,12APR2019:06:45:00,36.7,12.77,35.1,34.7,35.0,35.0,34.7,93,94,93,0.636,33.3,33.4,33.0,3.003,2.4,25,24,3.4,0.00003,0.00006,.,46.1,25,0,100,36.3,13.38,0.00,0.00
15min,AgWx,beryljct,423,12APR2019:07:00:00,36.6,12.76,34.9,34.5,34.6,34.7,34.4,94,94,94,0.634,33.0,33.1,32.9,2.28,2.5,3.5,5.0,3.3,0.00003,0.00005,.,46.0,25,0,100,35.8,13.38,0.01,0.00
15min,AgWx,beryljct,423,12APR2019:07:15:00,36.5,12.76,34.6,34.3,34.4,34.5,34.2,94,95,94,0.634,32.9,33.1,32.8,2.499,2.5,351,9.1,3.3,0.00003,0.00005,.,46.0,25,1,100,35.7,13.39,0.01,0.00
15min,AgWx,beryljct,423,12APR2019:07:30:00,36.4,12.77,34.6,34.2,34.3,34.5,34.2,95,95,95,0.633,32.9,33.1,32.8,2.696,2.9,356,8.3,4.1,0.00005,0.00007,.,45.9,25,4,100,35.6,13.40,0.01,0.01
15min,AgWx,beryljct,423,12APR2019:07:45:00,36.1,12.76,34.2,33.7,34.0,34.2,33.7,95,95,95,0.620,32.7,32.9,32.4,3.595,3.0,360,8.3,5.8,0.00007,0.00009,.,45.9,25,10,100,35.3,13.42,0.02,0.02
15min,AgWx,beryljct,423,12APR2019:08:00:00,35.7,12.76,33.5,33.0,33.3,33.7,33.0,95,95,95,0.604,32.0,32.4,31.7,3.683,3.6,22,11,5.0,0.00011,0.00014,.,45.8,25,21,100,35.7,13.44,0.02,0.02
15min,AgWx,beryljct,423,12APR2019:08:15:00,35.4,12.8,33.9,33.4,33.1,33.4,33.0,95,95,95,0.616,31.9,32.2,31.7,2.959,3.3,22,8.3,5.2,0.00018,0.00021,.,45.8,25,39,100,36.0,13.45,0.01,0.02
15min,AgWx,beryljct,423,12APR2019:08:30:00,35.4,12.85,34.7,34.0,33.6,34.0,33.3,96,96,95,0.633,32.5,32.9,32.1,2.762,3.2,358,8.4,4.5,0.00028,0.00032,.,45.8,25,65,100,36.4,13.46,0.01,0.01
15min,AgWx,beryljct,423,12APR2019:08:45:00,35.7,12.89,35.5,34.9,34.3,34.9,34.0,96,96,95,0.656,33.2,33.8,32.8,7.497,3.7,358,25,8.3,0.00034,0.00038,.,45.8,25,80,100,37.4,13.47,0.01,0.00
15min,AgWx,beryljct,423,12APR2019:09:00:00,36.4,12.93,36.2,35.6,35.3,35.6,34.8,95,96,95,0.666,34.1,34.5,33.7,7.76,7.5,35,8.5,11.9,0.00051,0.00058,.,45.7,25,135,100,38.7,13.47,0.00,0.01
15min,AgWx,beryljct,423,12APR2019:09:15:00,36.9,12.9,36.0,35.7,35.6,35.9,35.2,94,95,94,0.667,34.1,34.4,33.7,9.62,8.3,34,8.1,11.1,0.00044,0.00052,.,45.7,25,111,100,38.5,13.48,0.01,0.01
15min,AgWx,beryljct,423,12APR2019:09:30:00,37.2,12.92,36.5,35.7,35.6,35.8,35.5,94,94,93,0.662,34.0,34.2,33.9,7.125,9.0,29,8.5,11.7,0.00037,0.00045,.,45.6,25,90,100,38.1,13.49,0.01,0.00
15min,AgWx,beryljct,423,12APR2019:09:45:00,37.5,12.93,36.4,35.9,35.8,36.1,35.6,93,94,92,0.657,34.0,34.2,33.7,10.79,9.6,27,9.5,13.8,0.00051,0.00060,.,45.6,25,131,100,38.7,13.49,0.00,0.01
15min,AgWx,beryljct,423,12APR2019:10:00:00,37.8,13.08,36.7,36.6,36.2,36.6,35.9,92,93,91,0.669,34.0,34.4,33.6,12.5,10.1,33,9.7,14.6,0.00072,0.00084,.,45.6,25,195,100,39.8,13.49,0.00,0.00
15min,AgWx,beryljct,423,12APR2019:10:15:00,38.3,13.27,38.2,37.3,36.7,37.5,36.5,91,92,90,0.686,34.4,35.2,33.9,9.56,10.6,42,9.8,15.4,0.00085,0.00098,.,45.5,25,236,100,40.8,13.49,0.00,0.00
15min,AgWx,beryljct,423,12APR2019:10:30:00,38.7,13.48,37.5,37.4,37.3,37.7,37.0,90,91,88,0.667,34.5,35.0,34.1,11.4,10.9,39,11,14.2,0.00097,0.00113,.,45.5,25,271,100,41.6,13.49,0.00,0.00
15min,AgWx,beryljct,423,12APR2019:10:45:00,39.4,13.74,39.1,38.3,37.9,38.5,37.2,88,89,86,0.681,34.5,35.4,33.8,11.51,10.5,42,11,13.8,0.00120,0.00139,.,45.5,25,333,98,42.9,13.49,0.00,0.00
15min,AgWx,beryljct,423,12APR2019:11:00:00,40.2,13.96,39.3,39.1,39.0,39.4,38.4,86,88,85,0.691,35.3,36.2,34.7,11.82,10.4,48,11,14.0,0.00132,0.00153,.,45.4,25,355,0,44.7,13.49,0.00,0.00
15min,AgWx,beryljct,423,12APR2019:11:15:00,40.7,13.96,39.6,39.6,39.0,39.6,38.7,83,85,81,0.699,34.4,35.5,33.6,12.04,11.4,45,11,15.8,0.00130,0.00155,.,45.4,25,335,0,44.3,13.49,0.00,0.00
15min,AgWx,beryljct,423,12APR2019:11:30:00,41.1,13.94,39.1,39.2,39.3,39.6,39.2,79,84,75,0.632,33.2,35.1,32.0,13.79,11.5,38,9.2,15.8,0.00129,0.00159,.,45.4,25,299,0,45.9,13.49,0.00,0.00
15min,AgWx,beryljct,423,12APR2019:11:45:00,41.1,13.86,38.8,38.3,38.4,39.2,37.7,80,83,77,0.647,32.7,33.6,31.9,9.43,12.3,47,9.8,17.4,0.00115,0.00145,.,45.3,25,267,0,42.3,13.49,0.00,0.00
15min,AgWx,beryljct,423,12APR2019:12:00:00,41.0,14.61,39.7,39.2,38.6,39.3,38.0,80,83,76,0.639,33.1,33.8,31.6,9.56,10.8,49,11,14.6,0.00126,0.00153,.,45.3,25,302,0,43.7,13.49,0.00,0.00
15min,AgWx,beryljct,423,12APR2019:12:15:00,41.4,14.53,42.0,40.6,39.9,41.1,39.2,81,85,77,0.656,34.6,36.6,32.9,9.84,10.3,42,12,15.1,0.00198,0.00229,.,45.3,25,538,0,48.8,13.49,0.00,0.00
15min,AgWx,beryljct,423,12APR2019:12:30:00,43.0,14.51,42.3,42.8,41.6,42.8,40.6,76,79,74,0.740,34.8,36.8,33.6,14.4,11.6,56,13,15.5,0.00306,0.00351,.,45.3,25,870,0,60.5,13.49,0.00,0.00
15min,AgWx,beryljct,423,12APR2019:12:45:00,44.9,14.51,42.8,41.7,42.0,43.4,41.1,77,79,73,0.699,35.3,37.3,34.0,10.48,12.7,43,11,18.8,0.00238,0.00280,.,45.3,25,644,0,56.5,13.49,0.00,0.00
15min,AgWx,beryljct,423,12APR2019:13:00:00,45.9,14.54,42.3,42.4,42.5,43.7,41.7,74,81,69,0.681,34.9,37.6,32.6,12.14,12.2,37,14,15.7,0.00248,0.00293,.,45.3,25,634,0,56.9,13.49,0.00,0.00
15min,AgWx,beryljct,423,12APR2019:13:15:00,46.7,14.49,43.8,43.6,42.9,44.1,41.8,71,76,67,0.648,34.1,35.8,32.7,12.39,12.8,38,13,17.4,0.00274,0.00326,.,45.3,25,716,0,57.4,13.48,0.00,0.00
15min,AgWx,beryljct,423,12APR2019:13:30:00,47.9,14.53,45.7,45.6,44.5,45.6,43.5,68,72,65,0.730,34.6,36.7,32.9,11.47,11.6,45,15,15.7,0.00359,0.00419,.,45.3,25,924,0,63.2,13.48,0.00,0.00
15min,AgWx,beryljct,423,12APR2019:13:45:00,48.7,14.45,44.5,43.7,44.0,45.7,43.0,68,70,65,0.649,34.2,36.5,31.9,11.73,12.1,42,10,16.1,0.00216,0.00270,.,45.3,25,483,0,55.7,13.48,0.00,0.00
15min,AgWx,beryljct,423,12APR2019:14:00:00,49.0,14.46,42.9,43.3,44.7,46.4,43.3,66,69,62,0.617,34.1,36.7,31.6,16.68,12.7,22,18,16.7,0.00290,0.00352,.,45.3,25,693,0,58.8,13.48,0.01,0.00
15min,AgWx,beryljct,423,12APR2019:14:15:00,47.6,14.49,44.1,43.6,43.1,43.6,42.6,67,71,64,0.661,32.9,34.3,31.4,6.927,10.3,10,15,17.8,0.00160,0.00207,.,45.3,25,301,34,45.5,13.48,0.00,0.00
15min,AgWx,beryljct,423,12APR2019:14:30:00,46.8,14.07,44.7,44.7,44.3,44.8,43.4,63,70,58,0.660,32.4,34.8,30.6,10.48,8.5,41,11,12.3,0.00181,0.00229,.,45.3,25,336,7,50.0,13.48,0.00,0.00
15min,AgWx,beryljct,423,12APR2019:14:45:00,47.2,14.05,46.1,45.7,44.9,46.4,44.3,63,67,58,0.623,33.1,36.0,31.5,12.52,11.5,21,12,17.8,0.00200,0.00258,.,45.4,25,390,0,53.6,13.48,0.00,0.00
15min,AgWx,beryljct,423,12APR2019:15:00:00,48.2,14.1,49.1,47.1,45.7,47.3,45.0,58,62,53,0.649,31.8,34.3,29.7,7.388,9.9,18,18,13.1,0.00310,0.00377,.,45.4,25,700,0,58.9,13.48,0.00,0.00
15min,AgWx,beryljct,423,12APR2019:15:15:00,49.5,14.03,46.4,46.3,46.2,47.4,45.6,56,60,52,0.581,31.5,34.2,29.6,8.99,8.3,33,17,15.0,0.00199,0.00256,.,45.4,25,345,0,57.3,13.47,0.00,0.00
15min,AgWx,beryljct,423,12APR2019:15:30:00,49.7,14.03,46.3,45.8,45.6,46.3,45.0,61,67,52,0.624,33.0,35.3,29.3,6.84,7.7,59,21,10.8,0.00171,0.00219,.,45.5,25,298,0,54.5,13.47,0.00,0.00
15min,AgWx,beryljct,423,12APR2019:15:45:00,49.6,14.02,46.7,46.8,46.2,47.0,45.8,58,64,54,0.586,32.3,34.6,30.8,8.33,7.4,46,14,11.0,0.00190,0.00242,.,45.6,25,348,0,54.9,13.47,0.00,0.00
15min,AgWx,beryljct,423,12APR2019:16:00:00,49.9,14.03,46.1,45.8,46.5,47.4,45.7,58,62,54,0.603,32.7,34.6,31.0,9.19,10.4,43,19,14.9,0.00176,0.00237,.,45.6,25,282,0,54.4,13.47,0.00,0.00
15min,AgWx,beryljct,423,12APR2019:16:15:00,49.5,14.02,49.1,48.1,46.4,48.2,45.2,58,63,54,0.633,32.4,34.4,30.9,10.43,10.9,26,10,15.2,0.00233,0.00300,.,45.6,25,495,0,53.2,13.47,0.00,0.00
15min,AgWx,beryljct,423,12APR2019:16:30:00,51.0,13.96,48.4,47.9,48.1,48.7,47.4,53,55,48,0.581,31.6,33.4,28.9,8.66,10.8,27,11,16.4,0.00331,0.00412,.,45.7,25,703,0,58.6,13.46,0.00,0.00
15min,AgWx,beryljct,423,12APR2019:16:45:00,51.2,14,46.7,46.2,46.7,47.9,46.0,52,54,49,0.566,29.9,32.1,28.1,8,9.5,36,19,14.8,0.00160,0.00226,.,45.8,25,224,0,51.2,13.46,0.00,0.00
15min,AgWx,beryljct,423,12APR2019:17:00:00,50.7,13.99,48.9,48.7,47.2,48.7,46.2,51,54,48,0.588,30.0,31.3,28.1,14.01,10.2,21,18,17.2,0.00207,0.00279,.,45.8,25,407,0,52.5,13.47,0.01,0.00
15min,AgWx,beryljct,423,12APR2019:17:15:00,51.4,13.96,49.0,48.2,48.2,48.9,47.5,49,54,45,0.528,29.8,32.5,27.8,9.34,9.2,28,16,14.5,0.00254,0.00329,.,45.8,25,504,0,55.7,13.47,0.00,0.00
15min,AgWx,beryljct,423,12APR2019:17:30:00,51.8,14,48.2,48.1,47.8,48.7,47.2,49,54,45,0.558,29.3,31.6,27.0,5.787,6.5,18,14,10.5,0.00156,0.00212,.,45.9,25,299,0,54.3,13.46,0.00,0.00
15min,AgWx,beryljct,423,12APR2019:17:45:00,51.8,13.99,48.2,47.7,47.9,48.5,47.4,50,53,47,0.552,30.1,32.0,28.1,7.3,8.2,358,17,11.6,0.00146,0.00209,.,46.0,25,264,0,53.8,13.46,0.00,0.00
15min,AgWx,beryljct,423,12APR2019:18:00:00,50.1,13.4,44.6,44.8,46.2,47.8,44.8,51,57,46,0.546,29.1,31.2,27.3,2.981,7.1,2.9,34,13.9,0.00095,0.00146,.,46.0,25,110,58,45.4,13.50,0.04,0.01
15min,AgWx,beryljct,423,12APR2019:18:15:00,47.5,13.3,46.6,45.9,45.3,46.2,44.4,55,61,50,0.546,30.0,32.6,28.3,4.867,3.7,323,24,7.8,0.00054,0.00082,.,46.0,25,116,7,44.7,13.50,0.00,0.00
15min,AgWx,beryljct,423,12APR2019:18:30:00,46.6,13.31,42.7,42.3,43.9,46.0,42.2,67,77,51,0.666,33.3,35.6,29.1,8.81,11.8,319,16,21.1,0.00060,0.00106,.,46.1,25,94,0,46.1,13.50,0.00,0.00
15min,AgWx,beryljct,423,12APR2019:18:45:00,45.5,13.24,41.7,41.4,41.9,42.4,41.4,76,79,73,0.669,35.0,35.6,34.2,13.33,12.0,320,9.8,15.9,0.00032,0.00062,.,46.2,25,69,66,42.5,13.50,0.00,0.00
15min,AgWx,beryljct,423,12APR2019:19:00:00,44.0,13.16,39.9,39.7,40.4,41.4,39.6,78,80,74,0.655,34.0,34.7,33.7,5.086,7.2,27,32,13.0,0.00002,0.00020,.,46.2,25,33,100,39.9,13.51,0.01,0.00
15min,AgWx,beryljct,423,12APR2019:19:15:00,42.9,13.15,40.3,40.2,39.7,40.2,39.6,81,82,79,0.681,34.2,34.7,33.7,3.025,4.2,145,37,6.7,0.00008,0.00011,.,46.2,25,83,29,40.2,13.51,0.00,0.01
15min,AgWx,beryljct,423,12APR2019:19:30:00,42.1,13.15,40.5,39.9,39.9,40.2,39.7,82,83,81,0.686,34.8,35.2,34.5,3.727,4.1,254,8.0,5.0,0.00008,0.00010,.,46.3,25,82,0,40.3,13.51,0.00,0.00
15min,AgWx,beryljct,423,12APR2019:19:45:00,41.9,13.13,40.3,40.0,40.1,40.2,39.9,81,83,80,0.680,34.8,35.2,34.6,4.384,4.2,229,6.7,4.8,0.00009,0.00012,.,46.3,25,89,0,39.9,13.51,0.00,0.00
15min,AgWx,beryljct,423,12APR2019:20:00:00,41.7,13.09,39.4,38.6,39.4,40.0,38.4,83,85,81,0.675,34.6,34.9,34.0,0,3.1,210,73,6.4,-0.00002,-0.00002,.,46.4,25,37,0,39.1,13.51,0.00,0.00
15min,AgWx,beryljct,423,12APR2019:20:15:00,41.2,13.05,39.1,39.3,39.9,40.3,38.6,78,85,75,0.645,33.5,34.8,32.9,1.337,3.6,234,31,6.0,-0.00004,-0.00004,.,46.4,25,8,0,39.3,13.52,0.01,0.00
15min,AgWx,beryljct,423,12APR2019:20:30:00,40.9,13.04,40.1,39.8,39.6,40.0,39.0,79,82,77,0.645,33.6,34.0,33.3,0.965,1.9,283,33,3.2,-0.00013,-0.00016,.,46.4,25,1,0,39.3,13.52,0.00,0.00
15min,AgWx,beryljct,423,12APR2019:20:45:00,40.6,13.01,39.7,39.7,40.0,40.3,39.7,78,81,77,0.664,33.7,34.4,33.3,1.929,1.4,307,41,3.7,-0.00016,-0.00021,.,46.4,25,0,0,39.1,13.52,0.00,0.00
15min,AgWx,beryljct,423,12APR2019:21:00:00,40.3,13.01,39.3,39.3,39.6,40.0,39.2,81,82,80,0.664,34.2,34.6,33.8,5.546,3.4,351,14,5.5,-0.00007,-0.00008,.,46.4,25,0,0,39.0,13.52,0.00,0.00
15min,AgWx,beryljct,423,12APR2019:21:15:00,39.9,13,39.9,39.3,39.4,40.5,38.7,79,83,72,0.627,33.4,34.1,32.1,2.938,4.7,349,15,8.6,-0.00002,-0.00001,.,46.4,25,0,0,38.2,13.52,0.00,0.00
15min,AgWx,beryljct,423,12APR2019:21:30:00,39.4,12.97,37.4,37.3,38.7,39.6,37.1,77,80,75,0.606,32.1,33.1,31.0,2.061,3.4,8.5,18,6.6,-0.00006,-0.00006,.,46.5,25,0,0,37.3,13.52,0.00,0.00
15min,AgWx,beryljct,423,12APR2019:21:45:00,38.6,12.99,37.8,37.7,37.4,38.0,36.8,80,82,79,0.604,31.9,32.6,31.3,3.88,3.0,7.3,20,5.3,-0.00008,-0.00009,.,46.5,25,0,0,36.2,13.52,0.00,0.00
15min,AgWx,beryljct,423,12APR2019:22:00:00,38.2,12.97,37.2,36.2,36.2,37.7,35.3,84,87,79,0.616,31.7,32.5,30.9,2.609,2.6,49,19,4.6,-0.00010,-0.00012,.,46.4,25,0,0,36.5,13.52,0.00,0.00
15min,AgWx,beryljct,423,12APR2019:22:15:00,37.7,12.96,37.6,37.6,37.1,37.8,36.3,82,85,78,0.608,32.1,32.5,31.3,0.395,1.2,341,31,2.7,-0.00016,-0.00022,.,46.4,25,0,0,35.4,13.52,0.00,0.00
15min,AgWx,beryljct,423,12APR2019:22:30:00,36.7,12.94,34.6,33.3,36.0,37.8,33.3,81,85,77,0.549,30.8,32.0,29.2,0,0.5,318,0.5,2.0,-0.00021,-0.00031,.,46.4,25,0,0,35.5,13.52,0.00,0.00
15min,AgWx,beryljct,423,12APR2019:22:45:00,35.7,12.94,34.6,34.4,34.7,35.7,32.6,83,90,79,0.554,30.1,32.2,28.7,0,1.5,60,28,3.7,-0.00014,-0.00019,.,46.4,25,0,0,35.5,13.53,0.00,0.00
15min,AgWx,beryljct,423,12APR2019:23:00:00,34.9,12.91,35.6,35.1,35.1,35.6,34.3,82,83,81,0.564,30.2,30.8,29.5,0,0.4,46,12,1.3,-0.00021,-0.00032,.,46.4,25,0,0,36.0,13.53,0.00,0.00
15min,AgWx,beryljct,423,12APR2019:23:15:00,34.3,12.91,35.3,34.6,35.0,35.5,34.5,82,83,80,0.558,29.9,30.3,29.3,1.929,0.8,330,42,1.9,-0.00019,-0.00027,.,46.4,25,0,0,35.6,13.53,0.00,0.00
15min,AgWx,beryljct,423,12APR2019:23:30:00,33.9,12.91,36.1,35.2,35.1,35.5,34.6,81,83,79,0.558,29.9,30.3,29.5,1.6,0.6,174,36,2.4,-0.00020,-0.00029,.,46.4,25,0,0,35.3,13.53,0.00,0.00
15min,AgWx,beryljct,423,12APR2019:23:45:00,33.5,12.89,34.4,34.0,34.4,35.3,33.7,81,84,78,0.545,29.3,30.2,28.2,0,0.4,239,9.2,2.1,-0.00021,-0.00031,.,46.4,25,0,0,35.6,13.53,0.00,0.00
15min,AgWx,beryljct,423,13APR2019:00:00:00,33.2,12.88,32.6,33.0,34.5,35.6,33.0,82,84,80,0.513,29.5,30.4,27.7,0.57,1.1,84,24,2.9,-0.00016,-0.00022,.,46.3,25,0,0,35.5,13.53,0.00,0.00
15min,AgWx,beryljct,423,13APR2019:00:15:00,32.8,12.87,35.4,33.0,33.5,34.6,32.0,83,86,80,0.544,29.1,30.1,27.0,0.636,0.5,81,68,2.5,-0.00020,-0.00030,.,46.3,25,0,0,35.6,13.53,0.00,0.00
15min,AgWx,beryljct,423,13APR2019:00:30:00,32.3,12.85,30.3,30.8,32.8,34.3,30.8,84,87,80,0.489,28.5,30.5,26.6,0,0.8,260,0.4,2.0,-0.00018,-0.00025,.,46.2,25,0,0,35.4,13.53,0.00,0.00
15min,AgWx,bigpiney,439,12APR2019:00:00:00,24.3,12.66,18.9,19.0,19.8,21.1,18.7,79,82,76,0.288,14.3,15.0,13.2,4.998,5.1,207,4.4,6.4,0.00001,0.00002,31.7,31.7,31,0,0,0.0,0.64,0.00,0.00
15min,AgWx,bigpiney,439,12APR2019:00:15:00,23.8,12.65,21.6,20.7,19.5,20.7,18.4,81,83,79,0.302,14.7,15.3,13.7,5.612,5.3,236,17,6.8,0.00000,0.00001,31.7,31.7,31,0,0,0.0,0.64,0.00,0.00
15min,AgWx,bigpiney,439,12APR2019:00:30:00,23.5,12.65,23.2,21.7,21.0,21.8,20.5,77,79,75,0.304,15.0,15.4,14.4,3.025,4.1,269,18,6.1,-0.00000,0.00001,31.7,31.7,31,0,0,0.0,0.64,0.00,0.00
15min,AgWx,bigpiney,439,12APR2019:00:45:00,23.5,12.65,25.0,24.2,23.2,24.2,21.8,71,76,68,0.307,15.2,15.8,14.0,4.669,4.2,298,17,7.2,0.00002,0.00003,31.7,31.6,31,0,0,0.0,0.64,0.00,0.00
15min,AgWx,bigpiney,439,12APR2019:01:00:00,23.9,12.63,24.6,24.3,24.5,25.0,23.9,68,71,66,0.312,15.4,16.0,15.2,3.091,4.0,319,33,7.2,0.00003,0.00004,31.7,31.7,31,0,0,0.0,0.64,0.00,0.00
15min,AgWx,bigpiney,439,12APR2019:01:15:00,24.4,12.63,24.5,24.2,24.5,24.9,24.2,69,70,68,0.312,15.8,16.0,15.5,4.406,4.8,325,22,6.6,0.00004,0.00005,31.7,31.7,31,0,0,0.0,0.64,0.00,0.00
15min,AgWx,bigpiney,439,12APR2019:01:30:00,24.9,12.62,24.4,24.0,24.2,24.5,23.9,72,73,70,0.320,16.5,16.9,16.0,3.464,3.8,300,11,4.7,0.00001,0.00002,31.7,31.7,31,0,0,0.0,0.64,0.00,0.00
15min,AgWx,bigpiney,439,12APR2019:01:45:00,25.1,12.61,25.5,24.7,24.0,24.7,23.6,73,75,70,0.319,16.7,17.0,16.5,1.907,2.2,297,20,3.4,-0.00004,-0.00004,31.7,31.7,31,0,0,0.0,0.64,0.00,0.00
15min,AgWx,bigpiney,439,12APR2019:02:00:00,25.2,12.6,23.5,23.1,23.6,25.0,21.7,73,79,70,0.311,16.2,16.9,14.9,2.236,1.8,151,77,4.5,-0.00005,-0.00006,31.7,31.6,31,0,0,0.0,0.64,0.00,0.00
15min,AgWx,bigpiney,439,12APR2019:02:15:00,25.3,12.6,24.3,23.3,23.2,23.7,22.8,74,76,72,0.322,16.2,16.8,15.6,0,1.2,156,25,3.0,-0.00007,-0.00009,31.7,31.7,31,0,0,0.0,0.64,0.00,0.00
15min,AgWx,bigpiney,439,12APR2019:02:30:00,25.6,12.59,24.2,23.8,23.5,23.9,23.3,74,75,72,0.315,16.5,16.7,16.2,0.636,0.3,269,19,1.5,-0.00012,-0.00019,31.7,31.8,31,0,0,0.0,0.64,0.00,0.00
15min,AgWx,bigpiney,439,12APR2019:02:45:00,25.9,12.59,26.1,25.3,24.4,25.3,23.8,75,80,72,0.369,17.7,19.8,16.2,5.261,2.2,357,9.7,5.3,-0.00004,-0.00005,31.7,31.7,31,0,0,0.0,0.64,0.00,0.00
15min,AgWx,bigpiney,439,12APR2019:03:00:00,26.4,12.57,26.3,26.0,25.7,26.0,25.3,82,86,80,0.409,21.0,22.3,19.9,6.138,4.9,345,15,8.9,-0.00000,0.00000,31.7,31.7,31,0,0,0.0,0.64,0.00,0.00
15min,AgWx,bigpiney,439,12APR2019:03:15:00,27.0,12.58,26.2,25.9,26.0,26.1,25.8,88,89,86,0.420,22.8,23.0,22.3,6.16,7.6,344,6.7,9.9,0.00000,0.00001,31.7,31.7,31,0,0,0.0,0.64,0.00,0.00
15min,AgWx,bigpiney,439,12APR2019:03:30:00,27.6,12.56,25.9,25.6,25.7,25.9,25.6,90,91,89,0.425,23.1,23.3,22.9,5.02,5.6,357,8.4,7.8,-0.00002,-0.00002,31.7,31.7,31,0,0,0.0,0.64,0.00,0.00
15min,AgWx,bigpiney,439,12APR2019:03:45:00,28.0,12.56,25.7,25.3,25.5,25.6,25.3,91,92,91,0.426,23.3,23.4,23.2,1.337,2.3,0.8,13,5.8,-0.00007,-0.00009,31.7,31.7,31,0,0,0.0,0.64,0.00,0.00
15min,AgWx,bigpiney,439,12APR2019:04:00:00,28.1,12.56,25.2,24.8,25.1,25.4,24.8,92,92,92,0.419,23.0,23.3,22.8,0.263,1.7,314,25,3.1,-0.00008,-0.00011,31.7,31.7,31,0,0,0.0,0.64,0.00,0.00
15min,AgWx,bigpiney,439,12APR2019:04:15:00,28.1,12.55,25.3,24.9,24.9,25.0,24.8,92,92,92,0.421,22.9,23.1,22.8,0,0.0,271,0.0,0.0,-0.00014,-0.00022,31.7,31.7,31,0,0,0.0,0.64,0.00,0.00
15min,AgWx,bigpiney,439,12APR2019:04:30:00,28.0,12.55,25.2,24.7,24.8,25.0,24.7,92,93,92,0.419,22.9,23.1,22.8,0.636,0.8,220,7.8,1.9,-0.00011,-0.00016,31.7,31.7,31,0,0,0.0,0.64,0.00,0.00
15min,AgWx,bigpiney,439,12APR2019:04:45:00,27.7,12.53,24.7,24.3,24.6,24.8,24.1,93,93,92,0.412,22.7,22.9,22.2,0.767,0.6,197,5.5,1.6,-0.00012,-0.00017,31.7,31.7,31,0,0,0.0,0.64,0.00,0.00
15min,AgWx,bigpiney,439,12APR2019:05:00:00,27.1,12.52,23.5,23.6,24.0,24.4,23.3,93,94,93,0.404,22.2,22.8,21.5,4.319,3.2,222,10,5.5,-0.00006,-0.00007,31.7,31.7,31,0,0,0.0,0.64,0.00,0.00
15min,AgWx,bigpiney,439,12APR2019:05:15:00,26.5,12.52,22.8,22.4,23.4,24.1,22.3,93,94,92,0.380,21.7,22.6,20.3,2.433,2.8,259,18,4.4,-0.00006,-0.00008,31.7,31.7,31,0,0,0.0,0.64,0.00,0.00
15min,AgWx,bigpiney,439,12APR2019:05:30:00,25.8,12.51,22.0,21.4,21.9,22.5,21.4,92,93,91,0.361,20.0,20.7,19.3,1.863,2.5,328,22,3.6,-0.00006,-0.00008,31.7,31.7,31,0,0,0.0,0.64,0.00,0.00
15min,AgWx,bigpiney,439,12APR2019:05:45:00,25.0,12.49,22.0,21.8,21.7,22.1,21.2,93,94,92,0.374,19.9,20.5,19.2,1.447,1.7,331,20,3.1,-0.00008,-0.00010,31.7,31.7,31,0,0,0.0,0.64,0.00,0.00
15min,AgWx,bigpiney,439,12APR2019:06:00:00,24.3,12.49,22.9,22.0,21.3,22.0,20.1,93,94,92,0.381,19.6,20.6,18.2,0.943,1.8,248,16,3.4,-0.00008,-0.00010,31.7,31.7,31,0,0,0.0,0.64,0.00,0.00
15min,AgWx,bigpiney,439,12APR2019:06:15:00,23.7,12.48,21.0,20.7,21.6,22.2,20.7,92,94,91,0.348,19.7,20.7,18.5,1.162,1.7,275,11,2.2,-0.00008,-0.00010,31.7,31.7,31,0,0,0.0,0.64,0.00,0.00
15min,AgWx,bigpiney,439,12APR2019:06:30:00,23.0,12.46,19.9,19.1,18.9,20.7,16.3,89,91,86,0.325,16.2,18.4,13.0,2.872,1.8,267,15,3.4,-0.00007,-0.00008,31.7,31.7,31,0,0,0.0,0.64,0.00,0.00
15min,AgWx,bigpiney,439,12APR2019:06:45:00,22.2,12.44,18.0,17.7,18.5,19.3,17.7,88,91,87,0.292,15.6,17.1,14.4,4.647,3.8,312,13,4.8,-0.00003,-0.00003,31.7,31.7,31,2,0,0.0,0.64,0.00,0.00
15min,AgWx,bigpiney,439,12APR2019:07:00:00,21.4,12.45,18.4,17.5,17.8,18.3,17.3,86,87,86,0.286,14.4,15.1,13.9,3.091,3.5,308,11,4.7,-0.00017,-0.00014,31.7,31.7,31,18,0,0.0,0.64,0.00,0.00